Orange City, IA

1:43 PM CST on February 20, 2017 (GMT -0600)
Orange City Municipal

Weather History for KORC - January, 2013

Change the Weather History Date:

Friday, January 25, 2013

  Actual Average Record
Temperature  
Mean Temperature 19 °F -  
Max Temperature 30 °F 25 °F 57 °F (2002)
Min Temperature 8 °F 11 °F -9 °F (1997)
Degree Days  
Heating Degree Days 46    
Moisture  
Dew Point 10 °F    
Average Humidity 71    
Maximum Humidity 86    
Minimum Humidity 58    
Precipitation  
Precipitation 0.00 in - - ()
Sea Level Pressure  
Sea Level Pressure 30.12 in    
Wind  
Wind Speed 11 mph (NW)    
Max Wind Speed 22 mph    
Max Gust Speed 30 mph    
Visibility 10 miles    
Events      
Averages and records for this station are not official NWS values.
T = Trace of Precipitation, MM = Missing Value Source: NWS Daily Summary

Daily Weather History Graph

Daily Weather History Graph

Search for Another Location

Airport or City:

Trip Planner

Search our weather history database for the weather conditions in past years. The results will help you decide how hot, cold, wet, or windy it might be!

Date:

Astronomy

Jan. 25, 2013 Rise Set
Actual Time 7:45 AM CST 5:28 PM CST
Civil Twilight 7:15 AM CST 5:58 PM CST
Nautical Twilight 6:40 AM CST 6:33 PM CST
Astronomical Twilight 6:07 AM CST 7:06 PM CST
Moon 4:26 PM CST (1/25) 6:26 AM CST (1/25)
Length of Visible Light 10h 43m
Length of Day
9h 42m
Waxing Gibbous, 98% of the Moon is Illuminated
Jan 25
Waxing Gibbous
Jan 26
Full
Feb 3
Last Quarter
Feb 10
New
Feb 17
First Quarter

Hourly Weather History & Observations

Time (CST) Temp. Windchill Dew Point Humidity Pressure Visibility Wind Dir Wind Speed Gust Speed Precip Events Conditions
12:15 AM 15.8 °F 0.3 °F 6.8 °F 68% 30.06 in 10.0 mi SSW 16.1 mph - N/A   Mostly Cloudy
12:35 AM 15.8 °F 2.1 °F 5.0 °F 62% 30.09 in 10.0 mi SW 12.7 mph - N/A   Scattered Clouds
12:55 AM 15.8 °F 4.2 °F 5.0 °F 62% 30.09 in 10.0 mi SSW 9.2 mph - N/A   Clear
1:15 AM 15.8 °F 5.1 °F 6.8 °F 68% 30.09 in 10.0 mi SW 8.1 mph - N/A   Scattered Clouds
1:35 AM 15.8 °F 3.4 °F 6.8 °F 68% 30.08 in 10.0 mi SW 10.4 mph - N/A   Scattered Clouds
1:55 AM 14.0 °F 1.2 °F 6.8 °F 73% 30.06 in 10.0 mi SSW 10.4 mph - N/A   Clear
2:15 AM 12.2 °F 0.7 °F 6.8 °F 79% 30.06 in 10.0 mi SSW 8.1 mph - N/A   Clear
2:35 AM 12.2 °F 0.7 °F 5.0 °F 73% 30.06 in 10.0 mi SSW 8.1 mph - N/A   Clear
2:55 AM 12.2 °F 0.7 °F 5.0 °F 73% 30.04 in 10.0 mi SSW 8.1 mph - N/A   Clear
3:15 AM 12.2 °F 0.7 °F 5.0 °F 73% 30.04 in 10.0 mi SW 8.1 mph - N/A   Clear
3:35 AM 12.2 °F -0.2 °F 3.2 °F 67% 30.05 in 10.0 mi SW 9.2 mph - N/A   Clear
3:55 AM 12.2 °F 0.7 °F 3.2 °F 67% 30.03 in 10.0 mi SW 8.1 mph - N/A   Clear
4:15 AM 12.2 °F -0.2 °F 5.0 °F 73% 30.03 in 10.0 mi SW 9.2 mph - N/A   Clear
4:35 AM 12.2 °F -0.2 °F 5.0 °F 73% 30.03 in 10.0 mi SW 9.2 mph - N/A   Clear
4:55 AM 12.2 °F 1.7 °F 5.0 °F 73% 30.03 in 10.0 mi SW 6.9 mph - N/A   Clear
5:15 AM 12.2 °F 2.9 °F 5.0 °F 73% 30.03 in 10.0 mi WSW 5.8 mph - N/A   Clear
5:35 AM 10.4 °F 2.2 °F 5.0 °F 79% 30.03 in 10.0 mi West 4.6 mph - N/A   Clear
6:15 AM 8.6 °F 0.1 °F 3.2 °F 79% 30.02 in 10.0 mi West 4.6 mph - N/A   Clear
6:35 AM 10.4 °F 4.0 °F 5.0 °F 79% 30.03 in 10.0 mi WNW 3.5 mph - N/A   Clear
6:55 AM 10.4 °F -0.4 °F 6.8 °F 85% 30.03 in 10.0 mi WNW 6.9 mph - N/A   Clear
7:35 AM 17.6 °F 5.0 °F 12.2 °F 79% 30.04 in 10.0 mi NW 11.5 mph - N/A   Mostly Cloudy
7:55 AM 15.8 °F 3.4 °F 12.2 °F 86% 30.05 in 10.0 mi WNW 10.4 mph - N/A   Mostly Cloudy
8:15 AM 15.8 °F 5.1 °F 12.2 °F 86% 30.06 in 10.0 mi WNW 8.1 mph - N/A   Scattered Clouds
8:35 AM 15.8 °F 7.2 °F 10.4 °F 79% 30.07 in 10.0 mi West 5.8 mph - N/A   Clear
8:55 AM 17.6 °F 10.7 °F 12.2 °F 79% 30.07 in 10.0 mi West 4.6 mph - N/A   Clear
9:15 AM 17.6 °F 7.3 °F 14.0 °F 86% 30.08 in 10.0 mi West 8.1 mph - N/A   Scattered Clouds
9:35 AM 19.4 °F 7.9 °F 15.8 °F 86% 30.08 in 10.0 mi WNW 10.4 mph - N/A   Mostly Cloudy
9:55 AM 21.2 °F 8.3 °F 17.6 °F 86% 30.10 in 10.0 mi WNW 13.8 mph - N/A   Overcast
10:15 AM 23.0 °F 9.2 °F 17.6 °F 80% 30.10 in 10.0 mi WNW 17.3 mph - N/A   Overcast
10:35 AM 24.8 °F 13.4 °F 17.6 °F 74% 30.11 in 10.0 mi WNW 12.7 mph - N/A   Mostly Cloudy
10:55 AM 24.8 °F 13.4 °F 19.4 °F 80% 30.12 in 10.0 mi WNW 12.7 mph - N/A   Overcast
11:15 AM 24.8 °F 12.9 °F 19.4 °F 80% 30.13 in 10.0 mi West 13.8 mph - N/A   Overcast
11:35 AM 28.4 °F 17.0 °F 21.2 °F 74% 30.12 in 10.0 mi WNW 15.0 mph - N/A   Mostly Cloudy
11:55 AM 28.4 °F 15.8 °F 21.2 °F 74% 30.12 in 10.0 mi WNW 18.4 mph 24.2 mph N/A   Mostly Cloudy
12:15 PM 28.4 °F 15.4 °F 21.2 °F 74% 30.13 in 10.0 mi NW 19.6 mph 29.9 mph N/A   Mostly Cloudy
12:35 PM 30.2 °F 17.4 °F 21.2 °F 69% 30.13 in 10.0 mi NW 20.7 mph 27.6 mph N/A   Scattered Clouds
12:55 PM 30.2 °F 17.1 °F 21.2 °F 69% 30.13 in 10.0 mi NW 21.9 mph 26.5 mph N/A   Scattered Clouds
1:15 PM 30.2 °F 17.1 °F 21.2 °F 69% 30.12 in 10.0 mi NW 21.9 mph 27.6 mph N/A   Scattered Clouds
1:35 PM 30.2 °F 18.1 °F 21.2 °F 69% 30.12 in 10.0 mi NW 18.4 mph 25.3 mph N/A   Scattered Clouds
1:55 PM 30.2 °F 18.5 °F 21.2 °F 69% 30.12 in 10.0 mi NW 17.3 mph 25.3 mph N/A   Clear
2:15 PM 30.2 °F 18.1 °F 21.2 °F 69% 30.11 in 10.0 mi NW 18.4 mph 21.9 mph N/A   Clear
2:35 PM 30.2 °F 19.8 °F 21.2 °F 69% 30.11 in 10.0 mi NNW 13.8 mph 21.9 mph N/A   Clear
2:55 PM 30.2 °F 18.1 °F 19.4 °F 64% 30.11 in 10.0 mi NNW 18.4 mph 24.2 mph N/A   Clear
3:15 PM 28.4 °F 17.5 °F 19.4 °F 69% 30.12 in 10.0 mi NNW 13.8 mph 21.9 mph N/A   Clear
3:35 PM 28.4 °F 16.6 °F 17.6 °F 64% 30.13 in 10.0 mi NW 16.1 mph - N/A   Clear
3:55 PM 28.4 °F 17.5 °F 17.6 °F 64% 30.13 in 10.0 mi NW 13.8 mph 19.6 mph N/A   Clear
4:15 PM 26.6 °F 17.5 °F 17.6 °F 69% 30.15 in 10.0 mi NNW 9.2 mph 16.1 mph N/A   Clear
4:35 PM 26.6 °F 16.8 °F 15.8 °F 64% 30.16 in 10.0 mi NW 10.4 mph - N/A   Clear
4:55 PM 24.8 °F 16.1 °F 14.0 °F 64% 30.16 in 10.0 mi North 8.1 mph - N/A   Clear
5:15 PM 21.2 °F 10.9 °F 12.2 °F 68% 30.17 in 10.0 mi North 9.2 mph - N/A   Clear
5:35 PM 21.2 °F 12.6 °F 12.2 °F 68% 30.17 in 10.0 mi NNW 6.9 mph - N/A   Clear
5:55 PM 19.4 °F 9.5 °F 10.4 °F 68% 30.19 in 10.0 mi NNW 8.1 mph - N/A   Clear
6:15 PM 19.4 °F 8.6 °F 10.4 °F 68% 30.19 in 10.0 mi North 9.2 mph - N/A   Clear
6:35 PM 17.6 °F 6.4 °F 8.6 °F 68% 30.20 in 10.0 mi North 9.2 mph - N/A   Clear
6:55 PM 17.6 °F 8.2 °F 6.8 °F 63% 30.19 in 10.0 mi North 6.9 mph - N/A   Clear
7:15 PM 15.8 °F 5.1 °F 6.8 °F 68% 30.19 in 10.0 mi North 8.1 mph - N/A   Clear
7:35 PM 15.8 °F 5.1 °F 3.2 °F 58% 30.19 in 10.0 mi NNE 8.1 mph - N/A   Clear
7:55 PM 15.8 °F 4.2 °F 5.0 °F 62% 30.20 in 10.0 mi NNE 9.2 mph - N/A   Clear
8:15 PM 14.0 °F 6.5 °F 3.2 °F 62% 30.22 in 10.0 mi NNE 4.6 mph - N/A   Clear
8:35 PM 12.2 °F 4.3 °F 3.2 °F 67% 30.23 in 10.0 mi North 4.6 mph - N/A   Clear
8:55 PM 12.2 °F 1.7 °F 3.2 °F 67% 30.22 in 10.0 mi NNE 6.9 mph - N/A   Clear
9:15 PM 12.2 °F 2.9 °F 3.2 °F 67% 30.22 in 10.0 mi NE 5.8 mph - N/A   Clear
9:35 PM 10.4 °F -1.5 °F 1.4 °F 67% 30.24 in 10.0 mi NE 8.1 mph - N/A   Clear
9:55 PM 10.4 °F 0.8 °F 1.4 °F 67% 30.24 in 10.0 mi NE 5.8 mph - N/A   Clear
10:15 PM 10.4 °F 2.2 °F 1.4 °F 67% 30.24 in 10.0 mi NE 4.6 mph - N/A   Clear
10:35 PM 10.4 °F 0.8 °F 1.4 °F 67% 30.24 in 10.0 mi NE 5.8 mph - N/A   Clear
10:55 PM 10.4 °F 0.8 °F 1.4 °F 67% 30.24 in 10.0 mi ENE 5.8 mph - N/A   Clear
11:15 PM 8.6 °F - 1.4 °F 73% 30.25 in 10.0 mi Calm Calm - N/A   Clear
11:35 PM 8.6 °F 0.1 °F 1.4 °F 73% 30.26 in 10.0 mi East 4.6 mph - N/A   Clear
11:55 PM 8.6 °F -1.3 °F 1.4 °F 73% 30.25 in 10.0 mi East 5.8 mph - N/A   Clear